| time (UTC) | temp F | wind direction | speed knots | gust knots | rain 1hr in | rain 24hr in | rain mn in | humidity % | barometer mb |
| 20260504081541 | 51 | 0 | 0.0 | 0.9 | 0.00 | 0.00 | 0.00 | 68 | 1015.7 |
| 20260504044542 | 48 | 0 | 0.0 | 0.0 | 0.00 | 0.00 | 0.00 | 73 | 1015.9 |
| 20260504043039 | 47 | 0 | 0.0 | 0.0 | 0.00 | 0.00 | 0.00 | 77 | 1015.8 |
| 20260504041539 | 47 | 0 | 0.0 | 0.0 | 0.00 | 0.00 | 0.00 | 77 | 1015.9 |
| 20260504040041 | 47 | 0 | 0.0 | 0.0 | 0.00 | 0.00 | 0.00 | 75 | 1016.0 |
| 20260504034551 | 47 | 0 | 0.0 | 0.0 | 0.00 | 0.00 | 0.00 | 73 | 1016.0 |
| 20260504033121 | 47 | 0 | 0.0 | 0.0 | 0.00 | 0.00 | 0.00 | 73 | 1015.7 |
| 20260504031540 | 48 | 0 | 0.0 | 0.0 | 0.00 | 0.00 | 0.00 | 71 | 1015.8 |
| 20260504030042 | 48 | 0 | 0.0 | 0.0 | 0.00 | 0.00 | 0.00 | 70 | 1015.7 |
| 20260504024534 | 48 | 0 | 0.0 | 0.0 | 0.00 | 0.00 | 0.00 | 68 | 1015.7 |
| 20260504023043 | 49 | 0 | 0.0 | 0.0 | 0.00 | 0.00 | 0.00 | 70 | 1015.7 |
| 20260504021541 | 49 | 0 | 0.0 | 0.0 | 0.00 | 0.00 | 0.00 | 69 | 1015.6 |
| 20260504020039 | 50 | 0 | 0.0 | 0.0 | 0.00 | 0.00 | 0.00 | 65 | 1015.6 |
| 20260504014550 | 50 | 0 | 0.0 | 0.0 | 0.00 | 0.00 | 0.00 | 63 | 1015.3 |
| 20260504013035 | 51 | 0 | 0.0 | 0.0 | 0.00 | 0.00 | 0.00 | 64 | 1015.3 |
| 20260504011544 | 52 | 0 | 0.0 | 0.0 | 0.00 | 0.00 | 0.00 | 62 | 1015.1 |
| 20260504010040 | 53 | 0 | 0.0 | 0.0 | 0.00 | 0.00 | 0.00 | 56 | 1015.0 |
| 20260504004542 | 54 | 0 | 0.0 | 0.0 | 0.00 | 0.00 | 0.00 | 56 | 1015.0 |
| 20260504003048 | 55 | 0 | 0.0 | 0.0 | 0.00 | 0.00 | 0.00 | 52 | 1015.0 |
| 20260504001536 | 56 | 0 | 0.0 | 0.0 | 0.00 | 0.00 | 0.00 | 49 | 1014.7 |
| 20260504000037 | 57 | 0 | 0.0 | 0.0 | 0.00 | 0.00 | 0.00 | 46 | 1014.8 |
| 20260503234547 | 59 | 0 | 0.0 | 0.0 | 0.00 | 0.00 | 0.00 | 42 | 1014.6 |
| 20260503233040 | 59 | 0 | 0.0 | 0.0 | 0.00 | 0.00 | 0.00 | 39 | 1014.4 |
| 20260503231541 | 60 | 0 | 0.0 | 0.0 | 0.00 | 0.00 | 0.00 | 37 | 1014.3 |
| 20260503230042 | 61 | 0 | 0.0 | 0.0 | 0.00 | 0.00 | 0.00 | 36 | 1014.3 |
| 20260503224535 | 63 | 0 | 0.0 | 0.9 | 0.00 | 0.00 | 0.00 | 33 | 1014.3 |
| 20260503223035 | 63 | 0 | 0.0 | 2.6 | 0.00 | 0.00 | 0.00 | 32 | 1014.2 |
| 20260503221542 | 65 | 134 | 0.0 | 1.7 | 0.00 | 0.00 | 0.00 | 31 | 1014.3 |
| 20260503220049 | 65 | 0 | 0.0 | 2.6 | 0.00 | 0.00 | 0.00 | 30 | 1014.4 |
| 20260503214541 | 66 | 299 | 0.0 | 3.5 | 0.00 | 0.00 | 0.00 | 30 | 1014.4 |
| 20260503213040 | 67 | 0 | 0.0 | 2.6 | 0.00 | 0.00 | 0.00 | 29 | 1014.5 |
| 20260503211540 | 67 | 0 | 0.0 | 1.7 | 0.00 | 0.00 | 0.00 | 30 | 1014.3 |
| 20260503210038 | 66 | 115 | 0.0 | 1.7 | 0.00 | 0.00 | 0.00 | 31 | 1014.5 |
| 20260503204534 | 66 | 0 | 0.0 | 3.5 | 0.00 | 0.00 | 0.00 | 31 | 1014.3 |
| 20260503203041 | 64 | 0 | 0.0 | 2.6 | 0.00 | 0.00 | 0.00 | 33 | 1014.6 |
| 20260503201541 | 65 | 0 | 0.0 | 1.7 | 0.00 | 0.00 | 0.00 | 30 | 1014.8 |
| 20260503200047 | 65 | 0 | 0.0 | 4.3 | 0.00 | 0.00 | 0.00 | 32 | 1015.2 |
| 20260503194543 | 65 | 0 | 0.0 | 2.6 | 0.00 | 0.00 | 0.00 | 32 | 1015.4 |
| 20260503193046 | 65 | 86 | 0.0 | 1.7 | 0.00 | 0.00 | 0.00 | 33 | 1015.5 |
| 20260503191535 | 64 | 274 | 0.0 | 2.6 | 0.00 | 0.00 | 0.00 | 34 | 1015.6 |
| 20260503190033 | 64 | 0 | 0.0 | 3.5 | 0.00 | 0.00 | 0.00 | 36 | 1015.7 |
| 20260503184627 | 64 | 295 | 0.9 | 6.1 | 0.00 | 0.00 | 0.00 | 32 | 1016.0 |
| 20260503184554 | 64 | 295 | 0.9 | 6.1 | 0.00 | 0.00 | 0.00 | 32 | 1016.0 |
| 20260503183059 | 63 | 0 | 0.0 | 3.5 | 0.00 | 0.00 | 0.00 | 34 | 1016.2 |
| 20260503181538 | 63 | 95 | 0.0 | 2.6 | 0.00 | 0.00 | 0.00 | 34 | 1016.1 |
| 20260503180040 | 63 | 0 | 0.0 | 4.3 | 0.00 | 0.00 | 0.00 | 33 | 1016.2 |
| 20260503174535 | 63 | 0 | 0.0 | 2.6 | 0.00 | 0.00 | 0.00 | 34 | 1016.4 |
| 20260503173047 | 63 | 293 | 0.0 | 4.3 | 0.00 | 0.00 | 0.00 | 38 | 1016.5 |
| 20260503171540 | 61 | 303 | 0.0 | 1.7 | 0.00 | 0.00 | 0.00 | 36 | 1016.6 |